Tampa Knight Airport, FL

12:33 AM EDT on October 22, 2019 (GMT -0400)
Knight

Weather History for KTPF - September, 2019

Change the Weather History Date:

Thursday, September 19, 2019

  Actual Average (KTPA) Record (KTPA)
Temperature  
Mean Temperature 82 °F -  
Max Temperature 89 °F 86 °F 96 °F (1972)
Min Temperature 75 °F 73 °F 57 °F (1981)
Cooling Degree Days 17    
Growing Degree Days 32 (Base 50)    
Moisture  
Dew Point 68 °F    
Average Humidity 61    
Maximum Humidity 100    
Minimum Humidity 46    
Precipitation  
Precipitation 0.00 in - - ()
Sea Level Pressure  
Sea Level Pressure 30.01 in    
Wind  
Wind Speed 10 mph (ENE)    
Max Wind Speed 18 mph    
Max Gust Speed 24 mph    
Visibility 10 miles    
Events      
Averages and records for this station are not official NWS values.
T = Trace of Precipitation, MM = Missing Value Source: NWS Daily Summary

Daily Weather History Graph

Daily Weather History Graph

Search for Another Location

Airport or City:

Astronomy

Sep. 19, 2019 Rise Set
Actual Time 7:16 AM EDT 7:30 PM EDT
Civil Twilight 6:53 AM EDT 7:53 PM EDT
Nautical Twilight 6:25 AM EDT 8:20 PM EDT
Astronomical Twilight 5:58 AM EDT 8:48 PM EDT
Moon 11:04 PM EDT (9/19) 11:54 AM EDT (9/19)
Length of Visible Light 13h 00m
Length of Day
12h 13m
Waning Gibbous, 74% of the Moon is Illuminated
Sep 19
Waning Gibbous
Sep 21
Last Quarter
Sep 28
New
Oct 5
First Quarter
Oct 13
Full

Hourly Weather History & Observations

Time (EDT) Temp. Heat Index Dew Point Humidity Pressure Visibility Wind Dir Wind Speed Gust Speed Precip Events Conditions
12:15 AM - - - N/A% 30.01 in 10.0 mi ENE 5.8 mph - N/A   Overcast
12:35 AM - - - N/A% 30.02 in 10.0 mi NE 6.9 mph - N/A   Overcast
12:55 AM - - - N/A% 30.01 in 10.0 mi NE 6.9 mph - N/A   Mostly Cloudy
1:35 AM - - - N/A% 30.00 in 10.0 mi ENE 9.2 mph - N/A   Overcast
1:55 AM - - - N/A% 30.00 in 10.0 mi ENE 9.2 mph - N/A   Overcast
2:15 AM - - - N/A% 29.99 in 10.0 mi ENE 8.1 mph - N/A   Overcast
2:35 AM - - - N/A% 29.99 in 10.0 mi ENE 10.4 mph - N/A   Overcast
2:55 AM - - - N/A% 29.99 in 10.0 mi ENE 10.4 mph - N/A   Overcast
3:15 AM - - - N/A% 29.98 in 10.0 mi ENE 6.9 mph - N/A   Overcast
3:35 AM - - - N/A% 29.98 in 10.0 mi NE 6.9 mph - N/A   Overcast
3:55 AM - - - N/A% 29.98 in 10.0 mi NE 5.8 mph - N/A   Overcast
4:15 AM - - - N/A% 29.98 in 10.0 mi ENE 6.9 mph - N/A   Overcast
4:35 AM - - - N/A% 29.98 in 10.0 mi ENE 8.1 mph - N/A   Overcast
4:55 AM - - - N/A% 29.98 in 10.0 mi ENE 10.4 mph - N/A   Overcast
5:15 AM - - - N/A% 29.98 in 10.0 mi ENE 9.2 mph - N/A   Overcast
5:35 AM - - - N/A% 29.98 in 10.0 mi ENE 9.2 mph - N/A   Mostly Cloudy
5:55 AM - - - N/A% 29.98 in 10.0 mi ENE 8.1 mph - N/A   Mostly Cloudy
6:15 AM - - - N/A% 29.99 in 10.0 mi NE 6.9 mph - N/A   Overcast
6:35 AM - - - N/A% 30.00 in 10.0 mi NE 8.1 mph - N/A   Overcast
6:55 AM - - - N/A% 30.01 in 10.0 mi NE 8.1 mph - N/A   Overcast
7:15 AM - - - N/A% 30.01 in 10.0 mi ENE 8.1 mph - N/A   Overcast
7:35 AM - - - N/A% 30.02 in 10.0 mi ENE 9.2 mph - N/A   Overcast
7:55 AM - - - N/A% 30.02 in 10.0 mi ENE 6.9 mph - N/A   Mostly Cloudy
8:15 AM 75.2 °F - 75.2 °F 100% 30.03 in 10.0 mi NE 9.2 mph - N/A   Overcast
8:35 AM 75.2 °F - 71.6 °F 89% 30.03 in 10.0 mi NE 9.2 mph - N/A   Overcast
8:55 AM 77.0 °F - 71.6 °F 83% 30.03 in 10.0 mi NE 9.2 mph - N/A   Overcast
9:15 AM 78.8 °F - 71.6 °F 78% 30.04 in 10.0 mi NE 8.1 mph - N/A   Overcast
9:55 AM 78.8 °F - 69.8 °F 74% 30.04 in 10.0 mi ENE 10.4 mph - N/A   Overcast
10:15 AM 82.4 °F 86.3 °F 69.8 °F 66% 30.04 in 10.0 mi ENE 11.5 mph 17.3 mph N/A   Overcast
10:35 AM 82.4 °F 86.3 °F 69.8 °F 66% 30.05 in 10.0 mi ENE 11.5 mph - N/A   Mostly Cloudy
10:55 AM 82.4 °F 86.3 °F 69.8 °F 66% 30.05 in 10.0 mi ENE 11.5 mph - N/A   Mostly Cloudy
11:15 AM 86.0 °F 89.4 °F 68.0 °F 55% 30.05 in 10.0 mi East 15.0 mph 18.4 mph N/A   Overcast
11:35 AM 86.0 °F 89.4 °F 68.0 °F 55% 30.05 in 10.0 mi ENE 15.0 mph 21.9 mph N/A   Overcast
11:55 AM 86.0 °F 89.4 °F 68.0 °F 55% 30.04 in 10.0 mi ENE 13.8 mph - N/A   Scattered Clouds
12:15 PM 86.0 °F 88.2 °F 66.2 °F 51% 30.04 in 10.0 mi ENE 13.8 mph 21.9 mph N/A   Scattered Clouds
12:35 PM 86.0 °F 89.4 °F 68.0 °F 55% 30.04 in 10.0 mi East 17.3 mph 24.2 mph N/A   Mostly Cloudy
12:55 PM 86.0 °F 88.2 °F 66.2 °F 51% 30.03 in 10.0 mi East 16.1 mph 20.7 mph N/A   Mostly Cloudy
1:15 PM 87.8 °F 89.4 °F 64.4 °F 46% 30.02 in 10.0 mi East 15.0 mph 20.7 mph N/A   Scattered Clouds
1:35 PM 87.8 °F 89.4 °F 64.4 °F 46% 30.01 in 10.0 mi ENE 13.8 mph 23.0 mph N/A   Clear
1:55 PM 87.8 °F 89.4 °F 64.4 °F 46% 30.01 in 10.0 mi ENE 16.1 mph 20.7 mph N/A   Clear
2:15 PM 87.8 °F 90.4 °F 66.2 °F 49% 30.01 in 10.0 mi ENE 15.0 mph 20.7 mph N/A   Clear
2:35 PM 87.8 °F 91.4 °F 68.0 °F 52% 29.99 in 10.0 mi NE 18.4 mph 21.9 mph N/A   Clear
2:55 PM 87.8 °F 91.4 °F 68.0 °F 52% 29.99 in 10.0 mi ENE 15.0 mph 21.9 mph N/A   Scattered Clouds
3:15 PM 89.6 °F 93.4 °F 68.0 °F 49% 29.98 in 10.0 mi ENE 12.7 mph 17.3 mph N/A   Scattered Clouds
3:35 PM 89.6 °F 93.4 °F 68.0 °F 49% 29.98 in 10.0 mi NNE 10.4 mph 20.7 mph N/A   Mostly Cloudy
3:55 PM 89.6 °F 93.4 °F 68.0 °F 49% 29.97 in 10.0 mi ENE 16.1 mph 24.2 mph N/A   Mostly Cloudy
4:15 PM 89.6 °F 92.2 °F 66.2 °F 46% 29.97 in 10.0 mi NE 15.0 mph 21.9 mph N/A   Mostly Cloudy
4:35 PM 89.6 °F 93.4 °F 68.0 °F 49% 29.97 in 10.0 mi NE 12.7 mph 17.3 mph N/A   Mostly Cloudy
4:55 PM 87.8 °F 91.4 °F 68.0 °F 52% 29.97 in 10.0 mi NNE 13.8 mph 24.2 mph N/A   Mostly Cloudy
5:15 PM 87.8 °F 91.4 °F 68.0 °F 52% 29.97 in 10.0 mi ENE 16.1 mph 24.2 mph N/A   Mostly Cloudy
5:35 PM 86.0 °F 89.4 °F 68.0 °F 55% 29.97 in 10.0 mi NE 13.8 mph 19.6 mph N/A   Overcast
5:55 PM 86.0 °F 89.4 °F 68.0 °F 55% 29.97 in 10.0 mi NE 12.7 mph 20.7 mph N/A   Mostly Cloudy
6:15 PM 86.0 °F 89.4 °F 68.0 °F 55% 29.98 in 10.0 mi NE 13.8 mph 17.3 mph N/A   Mostly Cloudy
6:35 PM 84.2 °F 87.3 °F 68.0 °F 58% 29.98 in 10.0 mi NE 10.4 mph - N/A   Overcast
6:55 PM 82.4 °F 85.4 °F 68.0 °F 62% 29.98 in 10.0 mi NE 6.9 mph - N/A   Overcast
7:15 PM 82.4 °F 85.4 °F 68.0 °F 62% 29.98 in 10.0 mi ENE 11.5 mph 17.3 mph N/A   Overcast
7:35 PM 82.4 °F 83.9 °F 64.4 °F 54% 29.99 in 10.0 mi ENE 15.0 mph 21.9 mph N/A   Overcast
7:55 PM 82.4 °F 83.9 °F 64.4 °F 54% 30.01 in 10.0 mi ENE 12.7 mph - N/A   Overcast
8:15 PM 80.6 °F 82.7 °F 66.2 °F 61% 30.01 in 10.0 mi ENE 10.4 mph - N/A   Overcast
8:35 PM 80.6 °F 82.7 °F 66.2 °F 61% 30.02 in 10.0 mi ENE 10.4 mph - N/A   Overcast
8:55 PM 78.8 °F - 66.2 °F 65% 30.03 in 10.0 mi NE 13.8 mph - N/A   Overcast
9:15 PM 78.8 °F - 66.2 °F 65% 30.04 in 10.0 mi ENE 11.5 mph - N/A   Overcast
9:35 PM 78.8 °F - 66.2 °F 65% 30.04 in 10.0 mi ENE 11.5 mph - N/A   Overcast
9:55 PM 78.8 °F - 66.2 °F 65% 30.05 in 10.0 mi ENE 6.9 mph - N/A   Overcast
10:15 PM 77.0 °F - 68.0 °F 74% 30.06 in 10.0 mi NE 9.2 mph - N/A   Overcast
10:55 PM 77.0 °F - 68.0 °F 74% 30.06 in 10.0 mi NE 11.5 mph - N/A   Overcast
11:15 PM 77.0 °F - 68.0 °F 74% 30.06 in 10.0 mi ENE 10.4 mph - N/A   Overcast
11:35 PM 77.0 °F - 68.0 °F 74% 30.06 in 10.0 mi NE 11.5 mph - N/A   Overcast
11:55 PM 77.0 °F - 68.0 °F 74% 30.06 in 10.0 mi NE 12.7 mph 16.1 mph N/A   Overcast